カタログに戻る

STARLINK-32317

運用中通信VLEO
NORAD 60918·PAYLOAD·🇺🇸 United States

打ち上げ Aug 31, 2024 から Cape Canaveral Space Force Station

Loading…

次のパス (今後24時間)

TLE

最新Source: CelesTrak SupGP

元期: Sep 15, 2026, 02:11 UTC

1 60918C 24154R   26258.09145833  .00035612  00000+0  10522-2 0  2582
2 60918  53.1576 123.1830 0001263  85.9049   3.1390 15.34370988    13

AllMySatでSTARLINK-32317をリアルタイム追跡

Download on the App Store